Location: Braye
(49.4231°N, 3.3713°E)
Time: 13:28:08
(UTC+00:00)

Daily predictions for brighter satellites

Satellite Brightness Start Highest point End
(mag) Time Altitude Azimuth Time Altitude Azimuth Time Altitude Azimuth
USA 215 3.7 20:17:08 10° SE 20:23:35 59° SW 20:30:04 10° WNW
Cosmos 494 Rocket 4.1 20:18:47 10° NNW 20:24:06 89° ENE 20:29:20 10° SSE
NOSS 2-3 (D) 4.0 20:24:29 10° S 20:27:42 29° ESE 20:31:09 10° ENE
IRS-1A Rocket 4.4 20:23:40 10° SSE 20:29:19 79° ENE 20:35:08 10° NNW
Okean-O 3.1 20:25:18 10° S 20:29:40 62° WSW 20:34:04 10° NNW
Gbstr 26 Del rocket 3.2 20:28:01 10° WSW 20:32:19 89° S 20:37:36 10° ENE
Timation 2 Rocket 4.3 20:26:37 10° S 20:32:35 45° ESE 20:38:22 10° NE
CZ-4C R/B 3.2 20:29:32 10° NNE 20:33:13 60° ESE 20:36:44 10° S
Cosmos 1125 Rocket 4.3 20:30:09 10° SSE 20:34:50 33° ESE 20:39:32 10° NE
USA 276 1.9 20:36:41 10° W 20:39:36 71° SSW 20:42:37 10° ESE
Cosmos 2084 3.5 20:38:56 10° SSW 20:42:56 48° SE 20:46:46 10° NE
SPOT 3 Rocket 3.8 20:38:54 10° SSE 20:43:59 57° ENE 20:49:06 10° N
NOSS 2-2 (E) 2.8 20:47:18 10° SSW 20:50:29 52° SE 20:53:33 10° NE
NOSS 2-2 (C) 2.6 20:47:37 10° SW 20:50:49 84° SE 20:53:59 10° NE
Landsat 4 4.2 20:49:58 12° SE 20:52:53 38° ENE 20:56:07 10° N
In-Cosmos 22 Rocket 4.3 20:47:13 10° S 20:52:54 67° E 20:58:28 10° NNE
Nadezhda 3 Rocket 4.0 20:46:57 10° N 20:53:09 89° WSW 20:59:18 10° S
BREEZE-M DEB (TANK) 3.4 20:51:29 10° W 20:54:17 63° SSW 21:01:40 10° ESE
Cosmos 1544 Rocket 4.2 20:50:19 10° N 20:54:26 40° ENE 20:58:03 12° SE
NOSS 2-3 (E) 3.2 20:53:03 10° SSW 20:56:38 60° SE 21:00:40 10° NE
Cosmos 1844 4.2 20:51:38 10° SW 20:57:24 69° WNW 21:03:11 10° NNE
Terra 1.9 20:53:08 10° SSE 20:57:51 84° WSW 21:02:36 10° NNW
Meteor 1-21 Rocket 4.4 20:58:51 10° SSW 21:04:24 74° WNW 21:09:57 10° N
USA 305 4.0 21:01:44 10° WNW 21:05:18 37° N 21:08:33 10° ENE
ATLAS CENTAUR R/B 1.8 21:03:33 10° NW 21:07:26 53° SW 21:10:52 14° SSE
Cosmos 1437 Rocket 3.6 21:07:19 15° SE 21:09:36 28° E 21:12:46 10° NNE
Meteor 2-1 Rocket 4.3 21:07:56 10° NNW 21:13:37 83° W 21:18:58 11° S
Cosmos 1833 Rocket 2.8 21:08:02 10° NNW 21:13:42 68° ENE 21:18:22 15° SE
NOSS 2-3 (C) 3.1 21:10:45 10° SW 21:14:23 86° SE 21:18:31 10° NE
Cosmos 1455 Rocket 3.8 21:10:38 10° NNW 21:14:54 50° W 21:19:07 10° SSW
Cosmos 1975 Rocket 3.3 21:14:21 10° SSW 21:18:49 76° WNW 21:23:18 10° N
Cosmos 1025 Rocket 4.4 21:15:23 10° SW 21:19:21 38° WNW 21:23:20 10° N
Cosmos 44 3.8 21:14:47 10° S 21:19:44 42° ESE 21:24:30 10° NE
Orbus 7S? 4.2 21:17:31 10° WNW 21:19:48 23° SW 21:21:20 15° S
Cosmos 962 Rocket 4.5 21:15:33 10° S 21:21:42 72° E 21:27:51 10° NNE
Lacrosse 5 2.5 21:16:56 10° WSW 21:21:56 59° NNW 21:26:57 10° NE
ERS-1 Rocket 3.9 21:18:54 10° S 21:23:40 44° W 21:28:29 10° NNW
Spot 2 Rocket 4.0 21:19:36 10° S 21:24:37 59° WSW 21:29:41 10° NNW
Cosmos 220 Rocket 3.9 21:20:58 10° NNW 21:25:08 86° WSW 21:28:09 18° SSE
Cosmos 2082 Rocket 3.5 21:21:43 10° NNW 21:26:43 31° NE 21:31:39 10° ESE
NOSS 2-2 (D) 3.2 21:25:06 10° SW 21:28:17 64° NW 21:31:26 10° NE
ATLAS 5 CENTAUR R/B 3.4 21:25:32 10° W 21:28:31 27° NNW 21:31:54 10° NNE
USA 307 3.9 21:24:50 10° W 21:28:34 42° N 21:32:08 10° ENE
Cosmos 2218 Rocket 4.2 21:23:42 14° SSE 21:28:51 52° E 21:34:49 10° NNE
Landsat 5 3.8 21:26:34 10° NNE 21:30:54 53° E 21:34:10 16° S
Cosmos 1844 Rocket 4.4 21:28:34 10° WSW 21:33:40 36° NW 21:38:48 10° NNE
Cosmos 2278 Rocket 3.1 21:31:13 17° SSE 21:34:33 30° ESE 21:39:25 10° NE
Cosmos 1606 3.2 21:31:50 10° NNW 21:35:19 50° W 21:38:05 15° SSW
MetOp-A 3.7 21:35:02 19° SSE 21:38:21 78° ENE 21:42:41 10° NNW
Cosmos 2298 Rocket 4.1 21:33:35 10° S 21:38:49 61° ESE 21:44:04 10° NNE
Cosmos 2341 Rocket 4.0 21:33:38 11° S 21:39:46 78° E 21:46:08 10° NNE
ULPM Upper Stage 4.4 21:36:19 10° NNW 21:40:12 30° NNE 21:44:05 10° E
Cosmos 614 Rocket 4.0 21:36:04 10° NNW 21:41:10 74° ENE 21:44:35 21° SSE
H-2A R/B 4.3 21:44:33 12° E 21:46:48 18° ENE 21:49:29 10° NNE
Cosmos 1869 4.2 21:43:30 10° NNW 21:47:08 42° W 21:50:08 14° SSW
Cosmos 1536 Rocket 3.5 21:47:10 20° S 21:50:00 64° E 21:54:17 10° NNE
CZ-4C R/B 4.0 21:44:03 10° NW 21:50:06 38° NNE 21:57:29 10° E
Ariane Rocket 4.1 21:47:25 10° SSW 21:52:07 38° W 21:56:51 10° NNW
ISS -3.1 21:50:09 10° WNW 21:53:25 56° N 21:56:42 10° E
COSMOS 2406 4.2 21:51:07 10° NNW 21:56:28 39° NE 22:00:48 15° ESE
USA 290 3.5 21:58:14 23° ESE 21:58:16 23° ESE 22:00:54 10° NE
ARIANE 5 R/B 3.0 21:58:54 24° SE 22:01:21 54° ENE 22:05:44 10° N
GENESIS II 4.5 21:58:42 10° NW 22:02:08 46° WSW 22:03:31 29° S
Cosmos 1269 Rocket 4.3 21:58:35 10° NNW 22:03:51 58° ENE 22:07:06 23° SE
BREEZE-M DEB (TANK) 3.7 21:54:12 10° WNW 22:04:12 40° SW 22:06:11 25° S
Cosmos 1727 Rocket 4.1 21:58:22 10° N 22:04:43 67° ENE 22:08:48 23° SSE
ATLAS 3B R/B 3.6 22:01:26 21° SSE 22:04:52 31° ESE 22:11:16 10° NE
Cosmos 2228 3.6 22:01:20 10° NNW 22:05:25 50° W 22:08:06 20° SSW
Geosat 4.5 22:04:50 10° NNE 22:09:48 63° NW 22:14:44 10° SW
Cosmos 1943 Rocket 2.8 22:08:20 24° SSE 22:10:54 36° ESE 22:16:01 10° NE
USA 276 3.8 22:11:14 10° W 22:13:09 19° SW 22:13:09 19° SW
Cosmos 1821 Rocket 4.1 22:09:49 21° S 22:14:04 69° E 22:20:25 10° NNE
USA 281 4.4 22:09:55 10° ESE 22:15:44 35° NE 22:21:33 10° NNW
Gbstr 26 Del rocket 3.8 22:14:30 10° W 22:19:15 68° N 22:25:10 10° E
Cosmos 2058 4.1 22:19:03 24° ESE 22:20:09 27° E 22:23:38 10° NNE
Cosmos 2150 Rocket 4.4 22:15:09 10° SSW 22:20:32 67° WNW 22:26:00 10° NNE
ALOS 2 3.8 22:19:19 20° ESE 22:21:31 33° ENE 22:25:28 10° N
Cosmos 2084 Rocket 3.3 22:21:37 10° NW 22:25:36 74° NE 22:27:21 31° SE
Spot 4 4.3 22:23:23 26° SE 22:25:54 52° ENE 22:30:37 10° N
NOSS 3-1 (C) 3.0 22:24:27 11° SW 22:29:11 78° SE 22:35:10 10° NE
Cosmos 1544 4.3 22:30:25 15° ENE 22:30:25 15° ENE 22:31:11 10° NE
SeaSat 1 2.8 22:26:56 23° SE 22:29:53 57° NE 22:34:44 10° NNW
Cosmos 1812 2.5 22:31:58 10° N 22:35:31 71° ENE 22:36:28 45° SSE
Terra 4.4 22:34:38 10° WSW 22:36:11 11° W 22:37:45 10° WNW
USA 305 3.5 22:34:36 10° WNW 22:38:02 40° NNE 22:40:35 13° E
Cosmos 1238 Rocket 3.7 22:37:57 10° N 22:41:03 32° ENE 22:42:01 28° ESE
Aureole 2 4.2 22:41:11 47° SSW 22:41:59 81° WNW 22:45:23 10° NNE
BREEZE-M R/B 3.8 22:38:01 10° WSW 22:42:26 77° SSE 22:57:39 10° E
PSLV R/B 3.8 22:39:26 10° NNE 22:43:26 76° ESE 22:44:50 39° S
Cosmos 1892 Rocket 3.5 22:45:05 36° S 22:46:51 74° E 22:51:18 10° NNE
Cosmos 1140 Rocket 3.6 22:47:11 10° NNW 22:52:19 68° ENE 22:54:48 30° SE
MINOTAUR 4 R/B 3.3 22:54:11 10° NNE 22:57:01 82° ESE 22:57:01 82° ESE
Cosmos 1833 Rocket 4.3 22:52:47 10° NW 22:57:05 23° WSW 23:00:03 15° SW
Cosmos 2239 Rocket 4.5 22:55:30 26° SSW 22:59:14 83° W 23:05:32 10° N
SL-08 R/B 4.5 22:57:35 26° SSW 23:01:14 82° W 23:07:23 10° N
BREEZE-M DEB (TANK) 3.6 22:58:39 10° W 23:01:35 73° SSW 23:09:35 10° ESE
USA 307 3.4 22:58:34 10° WNW 23:02:17 48° NNE 23:05:32 11° E
Cosmos-2242 3.7 23:00:24 10° N 23:04:26 43° ENE 23:05:51 31° ESE
Cosmos 2123 Rocket 4.0 22:58:14 10° N 23:04:34 87° E 23:07:51 31° S
CENTAUR R/B 4.4 22:58:26 10° NW 23:05:35 40° NNE 23:13:52 10° E
Lacrosse 5 3.6 23:01:01 10° WNW 23:05:39 35° N 23:10:19 10° ENE
NOSS 3-1 (A) 3.0 23:03:57 28° SSW 23:06:36 70° SE 23:12:33 10° NE
Cosmos 1726 Rocket 4.3 23:03:21 10° NNW 23:07:29 43° W 23:09:05 30° SW
NOSS 8 (F) 4.3 23:05:36 10° NW 23:08:41 72° SW 23:09:06 61° S
Cosmos 2082 Rocket 2.4 23:05:37 10° NW 23:11:07 56° WSW 23:13:28 33° S
Cosmos 1515 3.9 23:11:00 10° N 23:14:22 47° ENE 23:14:57 42° ESE
Cosmos 2278 Rocket 2.9 23:12:59 11° SW 23:18:22 52° NW 23:23:55 10° NNE
ULPM Upper Stage 2.8 23:15:36 10° NW 23:19:55 63° SW 23:20:59 46° S
Lacrosse 4 Rocket 3.7 23:20:40 11° E 23:20:40 11° E 23:21:29 10° E
Cosmos 2369 Rocket 3.3 23:19:37 24° SE 23:21:07 27° ESE 23:25:44 10° NE
PSLV R/B 3.9 23:16:56 10° NNE 23:21:10 52° E 23:22:20 40° SSE
H-2A R/B 2.8 23:20:31 39° SW 23:21:25 47° W 23:25:09 10° NNW
Cosmos 489 Rocket 4.4 23:24:24 31° S 23:27:34 77° ESE 23:33:49 10° NNE
ISS -3.9 23:26:58 10° WNW 23:30:10 73° SW 23:30:10 73° SW
USA 290 4.3 23:30:56 16° W 23:32:35 24° WNW 23:35:16 10° N
Cosmos 2058 Rocket 3.7 23:29:09 10° NNW 23:33:18 44° W 23:34:37 34° SW
Cosmos 1782 2.6 23:30:02 10° N 23:33:51 88° W 23:34:35 57° S
USA 229 DEB 4.0 23:32:18 32° SSE 23:34:27 43° ESE 23:40:42 10° NE
USA 229 4.0 23:32:27 32° SSE 23:34:35 42° ESE 23:40:50 10° NE
CRYOSAT 2 4.3 23:31:11 10° N 23:36:05 82° W 23:37:58 38° SSW
Cosmos 1862 3.9 23:35:38 37° ESE 23:36:14 40° E 23:39:52 10° NNE
Cosmos 1378 2.6 23:34:42 10° N 23:37:57 74° E 23:38:06 71° ESE
Cosmos 482 Debris 4.3 23:34:11 10° W 23:38:43 70° NNW 23:41:59 10° ENE
CZ-4C R/B 2.9 23:32:15 10° NW 23:39:19 86° SW 23:45:35 20° SE
COSMOS 2455 4.0 23:34:23 10° NNW 23:40:06 41° NE 23:45:47 10° ESE
Meteor 2-2 Rocket 4.2 23:35:00 10° NNW 23:40:45 89° W 23:43:24 34° S
COSMOS 2406 3.8 23:35:29 10° NW 23:40:49 43° WSW 23:42:50 31° SSW
Cosmos 1934 Rocket 4.2 23:39:12 27° SSW 23:42:45 65° WNW 23:48:56 10° N
Cosmos 2221 3.7 23:41:12 10° N 23:45:05 33° ENE 23:46:52 24° ESE
Cosmos 2285 Rocket 4.1 23:45:25 10° NNW 23:51:54 81° ENE 23:55:34 28° SSE
Cosmos 1943 Rocket 3.1 23:49:48 13° WSW 23:54:33 44° NW 23:59:57 10° NNE
Cosmos 1825 Rocket 4.5 23:54:06 30° SE 23:55:20 36° E 23:59:17 10° NNE
